Flag for Canada Weather past 2 weeks in Cape Dorset, Nunavut Territory, Canada

Now
-24 °F

Clear.


Feels Like: -24 °F
Forecast: N/A
Wind: No wind

Location: Cape Dorset

Current Time: Jan 25, 2015 at 5:46:41 PM

Latest Report: Jan 25, 2015 at 5:00 PM


Visibility: 9 mi

Pressure: 29.82 "Hg

Humidity: 68%

Dew point: -31 °F

Location of Cape DorsetLocation

Historic Weather in Cape Dorset — Graph

°F

Cape Dorset temperature yesterday

Maximum temperature yesterday: -17 °F (at 12:00 AM)
Minimum temperature yesterday: -20 °F (at 4:01 PM)
Average temperature yesterday: -18 °F

Past Weeks' High & Low Weather Summary

 TemperatureHumidityPressure
High-6 °F (Jan 12, 12:00 PM)84% (Jan 12, 4:00 AM)30.07 "Hg (Jan 12, 4:00 AM)
Low-27 °F (Jan 14, 2:00 AM)61% (Jan 14, 9:56 PM)29.35 "Hg (Jan 13, 1:00 AM)
Average-19 °F74%29.76 "Hg
* Reported Jan 10 4:00 PM — Jan 25 4:00 PM, Cape Dorset, Weather by CustomWeather, © 2014

Note: Actual official high and low records may vary slightly from our data, if they occured in-between our weather recording intervals... More about our weather records

Advertising

Cape Dorset weather history for previous 24 hours

 ConditionsComfort  
Time TempWeatherWind HumidityBarometerVisibility
4:00 PM
Jan 25
-26 °FClear.6 mph75%29.81 "Hg9 mi
3:00 PM-26 °FSunny.5 mph75%29.80 "Hg9 mi
2:00 PM-26 °FSunny.3 mph75%29.80 "Hg9 mi
1:00 PM-24 °FSunny.5 mph68%29.79 "Hg9 mi
12:00 PM-24 °FSunny.5 mph75%29.78 "Hg9 mi
11:00 AM-26 °FSunny.3 mph75%29.78 "Hg9 mi
10:00 AM-26 °FLight snow. Sunny.3 mph67%29.77 "Hg9 mi
9:58 AM-26 °FSunny.5 mph75%29.77 "Hg9 mi
9:00 AM-24 °FClear.2 mph68%29.76 "Hg9 mi
8:00 AM-24 °FClear.No wind68%29.75 "Hg9 mi
7:02 AM-24 °FLight snow. Clear.8 mph75%29.75 "Hg9 mi
6:00 AM-24 °FClear.5 mph68%29.74 "Hg9 mi
5:00 AM-22 °FClear.3 mph68%29.73 "Hg9 mi
4:00 AM-24 °FClear.2 mph75%29.72 "Hg9 mi
3:03 AM-22 °FClear.8 mph68%29.71 "Hg9 mi
2:00 AM-22 °FLight snow. Clear.No wind68%29.70 "Hg9 mi
1:58 AM-22 °FLight snow. Clear.No wind68%29.70 "Hg9 mi
1:00 AM-24 °FClear.3 mph75%29.70 "Hg9 mi
12:00 AM-24 °FClear.2 mph68%29.69 "Hg9 mi
11:00 PM
Jan 24
-20 °FPassing clouds.3 mph68%29.69 "Hg9 mi
10:00 PM-20 °FPassing clouds.5 mph68%29.69 "Hg9 mi
9:00 PM-20 °FPassing clouds.3 mph68%29.68 "Hg9 mi
8:00 PM-20 °FClear.2 mph68%29.69 "Hg9 mi
7:00 PM-20 °FLight snow. Overcast.5 mph75%29.68 "Hg4 mi
6:04 PM-20 °FMostly cloudy.3 mph75%29.69 "Hg5 mi
6:00 PM-18 °FMostly cloudy.3 mph69%29.69 "Hg7 mi
5:00 PM-18 °FLight snow. Passing clouds.2 mph75%29.69 "Hg9 mi
Weather by CustomWeather, © 2014

See weather overviewHow to use our weather pages